Regional Weather Roundup
Issued by NWS

Home | Current Version | Previous Version | Text Only | Print | Product List | Glossary Off
Versions: 1 2 3 4 5 6 7 8 9 10 11 12 13 14 15 16 17 18 19 20 21 22 23 24 25 26 27 28 29 30 31 32 33 34 35 36 37 38 39 40 41 42 43 44 45 46 47 48 49 50

000
ASUS45 KABQ 201610
RWRNM
WEATHER ROUNDUP FOR NEW MEXICO
NATIONAL WEATHER SERVICE ALBUQUERQUE NM
1000 AM MDT SUN APR 20 2014

NOTE: "FAIR" MEANS FEW OR NO CLOUDS BELOW 12,000 FEET AGL WITH NO
       SIGNIFICANT WEATHER OR OBSTRUCTIONS TO VISION.

      THIS PRODUCT IS RELEASED AS TWO VERSIONS.  ONE VERSION NEAR
      THE TOP OF THE HOUR CONTAINING PRELIMINARY DATA FROM ALBUQUERQUE
      AND OTHER STATIONS.  A FINAL VERSION WITH ADDITIONAL DATA IS
      ISSUED ABOUT 10 MINUTES AFTER THE HOUR.

NMZ501-503-504-510>518-201700-
NORTHWEST PLATEAU/NORTHCENTRAL MOUNTAINS

CITY           SKY/WX    TMP DP  RH WIND       PRES   REMARKS
FARMINGTON     SUNNY     61  36  39 W9        30.13S
LOS ALAMOS     CLOUDY    51  42  71 NE3       30.19S
SANTA FE       SUNNY     54  44  69 SW13      30.15S
TAOS           CLOUDY    48  39  71 CALM      30.20S
ANGEL FIRE     DRIZZLE   44  38  78 W9        30.21R

$$
NMZ402-403-502-505>509-201700-
WESTCENTRAL MOUNTAINS/SOUTHWEST MOUNTAINS

CITY           SKY/WX    TMP DP  RH WIND       PRES   REMARKS
GALLUP         SUNNY     55  38  52 W6        30.22S
GRANTS         SUNNY     54  35  49 CALM      30.21S
SILVER CITY    SUNNY     59  39  47 W8        30.21S

$$
NMZ407-409-411-412-201700-
SOUTHERN DESERTS

CITY           SKY/WX    TMP DP  RH WIND       PRES   REMARKS
LORDSBURG      FAIR      57  45  62 CALM      30.18S
DEMING         SUNNY     61  44  53 VRB5      30.17R
LAS CRUCES     SUNNY     62  41  46 W3        30.18R
HOLLOMAN AFB   PTSUNNY   59  48  66 S5        30.16R
ALAMOGORDO     PTSUNNY   57  48  72 W5        30.17R
T OR C         SUNNY     60  46  59 VRB7      30.16S

$$
NMZ519>523-201700-
CENTRAL VALLEYS/CENTRAL HIGHLANDS

CITY           SKY/WX    TMP DP  RH WIND       PRES   REMARKS
ALBUQUERQUE    PTSUNNY   57  42  57 SW5       30.17R
DOUBLE EAGLE   PTSUNNY   55  41  58 S5        30.18R
MORIARTY ARPT  FAIR      56  40  55 NW9G17    30.17R
CLINES CORNERS MOSUNNY   52  41  66 W16G23    30.15R
BELEN          FAIR      59  43  54 SW3       30.16R
SOCORRO        FAIR      59  49  70 S7        30.16S

$$
NMZ524>526-539-540-201700-
SOUTHCENTRAL MOUNTAINS

CITY           SKY/WX    TMP DP  RH WIND       PRES   REMARKS
RUIDOSO        PTSUNNY   50  43  76 NW7       30.22S

$$
NMZ527>531-201700-
NORTHEAST HIGHLANDS/NORTHEAST PLAINS

CITY           SKY/WX    TMP DP  RH WIND       PRES   REMARKS
LAS VEGAS      MOSUNNY   53  42  66 SW8       30.14R
RATON          LGT RAIN  51  43  74 N9        30.12R
CLAYTON        CLOUDY    62  43  49 NW9       30.05S

$$
NMZ532>537-201700-
EASTCENTRAL PLAINS

CITY           SKY/WX    TMP DP  RH WIND       PRES   REMARKS
TUCUMCARI      PTSUNNY   64  46  52 W15       30.03S
CANNON AFB     MOSUNNY   64  43  46 W21G28    30.07S
CLOVIS AIRPORT   N/A     63  48  59 SW16      30.10S

$$
NMZ028-029-538-201700-
SOUTHEAST PLAINS

CITY           SKY/WX    TMP DP  RH WIND       PRES   REMARKS
ROSWELL        MOSUNNY   68  45  43 W13       30.08F
ARTESIA        MOSUNNY   68  48  49 W20       30.10R
CARLSBAD       SUNNY     63  53  70 VRB3      30.10S
HOBBS          PTSUNNY   63  61  94 S12       30.13R


$$



USA.gov is the U.S. government's official web portal to all federal, state and local government web resources and services.